Flag for Germany Weather past 2 weeks in Öhringen, Baden-Württemberg, Germany

Now
38 °F

Clear.


Feels Like: 38 °F
Forecast: 38 / 55 °F
Wind: 1 mph from Northeast

Location: Oehringen


UV Index: 3 (Moderate)

Visibility: 17 mi


Pressure: 30.38 "Hg

Humidity: 71%

Dew point: 29 °F

Location of ÖhringenLocation

Historic Weather in Öhringen

°F

Öhringen temperature yesterday

Maximum temperature yesterday: 56 °F (at 5:00 PM)
Minimum temperature yesterday: 32 °F (at 7:00 AM)
Average temperature yesterday: 45 °F

Past Weeks' High & Low Weather Summary

 TemperatureHumidityPressure
High74 °F (Apr 3, 5:00 PM)97% (Apr 6, 1:00 AM)30.42 "Hg (Apr 6, 1:00 AM)
Low32 °F (Apr 16, 7:00 AM)29% (Apr 2, 5:00 PM)29.63 "Hg (Apr 3, 5:00 PM)
Average54 °F64%30.03 "Hg
* Reported Apr 2 1:00 AM — Apr 17 1:00 AM, Öhringen, Weather by CustomWeather, © 2014

Note: Actual official high and low records may vary slightly from our data, if they occured in-between our weather recording intervals... More about our weather records

Advertising

Historic Weather Conditions — Data for Previous 24 hours

 ConditionsComfort  
Time TempWeatherWind HumidityBarometerVisibility
1:00 AM
Apr 17
39 °FClear.1 mph68%30.39 "Hg19 mi
12:00 AM40 °FClear.1 mph67%30.39 "Hg19 mi
11:00 PM
Apr 16
41 °FClear.1 mph67%30.40 "Hg16 mi
10:00 PM43 °FClear.1 mph63%30.39 "Hg19 mi
9:00 PM47 °FClear.2 mph55%30.38 "Hg22 mi
8:00 PM51 °FSunny.2 mph46%30.36 "Hg34 mi
7:00 PM54 °FScattered clouds.2 mph41%30.35 "Hg28 mi
6:00 PM54 °FPassing clouds.2 mph38%30.36 "Hg31 mi
5:00 PM56 °FScattered clouds.1 mph44%30.36 "Hg34 mi
4:00 PM54 °FOvercast.2 mph46%30.38 "Hg22 mi
3:00 PM55 °FOvercast.2 mph45%30.38 "Hg25 mi
2:00 PM53 °FOvercast.2 mph45%30.40 "Hg31 mi
1:00 PM51 °FScattered clouds.2 mph50%30.40 "Hg31 mi
12:00 PM49 °FCool.2 mph56%30.40 "HgN/A
11:00 AM47 °FCool.2 mph61%30.41 "Hg16 mi
10:00 AM44 °FQuite cool.2 mph68%30.42 "Hg15 mi
9:00 AM41 °FQuite cool.1 mph77%30.42 "Hg13 mi
8:00 AM36 °FChilly.1 mph87%30.42 "Hg11 mi
7:00 AM32 °FChilly.No wind95%30.41 "Hg8 mi
6:00 AM32 °FChilly.1 mph94%30.40 "Hg8 mi
5:00 AM33 °FChilly.1 mph92%30.38 "Hg9 mi
4:00 AM34 °FChilly.1 mph91%30.38 "Hg10 mi
3:00 AM35 °FChilly.1 mph89%30.37 "Hg11 mi
Weather by CustomWeather, © 2014

See weather overview